Location: Narrabri
(30.3170°S, 149.7830°E)
Time: 12:19:21
(UTC+11:00)

Vanguard 3 - All Passes

Search period start: 22 February 2018 00:00
Search period end: 04 March 2018 00:00
Orbit: 508 x 3264 km, 33.3° (Epoch: 21 February)

Date Brightness Start Highest point End Pass type
(mag) Time Alt. Az. Time Alt. Az. Time Alt. Az.
22 Feb - 00:23:30 10° N 00:31:44 25° NE 00:43:30 10° E visible
22 Feb - 02:31:59 10° NW 02:44:38 67° NNE 03:03:56 10° ESE visible
22 Feb - 04:44:50 10° W 05:01:28 84° S 05:21:49 10° E visible
22 Feb - 07:00:27 10° W 07:20:16 85° S 07:38:08 10° E daylight
22 Feb - 09:17:43 10° WSW 09:37:25 65° NNW 09:51:24 10° NE daylight
22 Feb - 11:38:07 10° W 11:50:46 25° NW 11:59:58 10° N daylight
23 Feb - 01:19:01 10° NNW 01:29:21 47° NE 01:45:51 10° ESE visible
23 Feb - 03:30:04 10° WNW 03:44:15 87° NNE 04:04:36 10° ESE visible
23 Feb - 05:44:20 10° W 06:02:26 81° S 06:22:05 10° E visible
23 Feb - 08:00:34 10° WSW 08:20:48 81° NNW 08:37:12 10° ENE daylight
23 Feb - 10:18:48 10° WSW 10:36:08 42° NW 10:48:22 10° NNE daylight
24 Feb - 00:07:18 10° N 00:15:11 28° NE 00:26:56 10° E visible
24 Feb - 02:16:10 10° NW 02:27:58 72° NNE 02:46:55 10° ESE visible
24 Feb - 04:28:57 10° W 04:44:43 82° S 05:05:14 10° E visible
24 Feb - 06:44:05 10° WSW 07:03:23 88° SSE 07:21:57 10° ENE daylight
24 Feb - 09:00:55 10° WSW 09:20:29 61° NNW 09:35:17 10° NE daylight
24 Feb - 11:21:45 10° W 11:33:59 23° NW 11:43:22 10° N daylight
24 Feb - 22:58:51 10° NE 23:01:45 12° NE 23:05:04 10° ENE night (unlit)
25 Feb - 01:03:10 10° NW 01:12:48 51° NE 01:28:52 10° ESE visible
25 Feb - 03:14:20 10° WNW 03:27:37 89° SSW 03:47:44 10° ESE visible
25 Feb - 05:28:16 10° W 05:45:38 82° S 06:05:41 10° E visible
25 Feb - 07:43:59 10° WSW 08:03:49 77° NNW 08:21:02 10° ENE daylight
25 Feb - 10:02:04 10° WSW 10:19:11 39° NW 10:32:01 10° NNE daylight
25 Feb - 23:51:17 10° NNW 23:58:43 30° NE 00:10:17 10° E visible
26 Feb - 02:00:30 10° WNW 02:11:27 77° NNE 02:29:53 10° ESE visible
26 Feb - 04:13:08 10° W 04:28:03 81° S 04:48:32 10° E visible
26 Feb - 06:27:49 10° WSW 06:46:27 90° NNW 07:05:39 10° ENE visible
26 Feb - 08:44:14 10° WSW 09:03:27 56° NW 09:19:00 10° NE daylight
26 Feb - 11:05:38 10° W 11:17:08 20° NW 11:26:27 10° N daylight
26 Feb - 22:41:49 10° NNE 22:45:25 13° NE 22:49:48 10° ENE night (unlit)
27 Feb - 00:47:28 10° NW 00:56:22 56° NE 01:11:52 10° ESE visible
27 Feb - 02:58:41 10° WNW 03:11:06 86° SSW 03:30:48 10° ESE visible
27 Feb - 05:12:18 10° W 05:28:50 83° S 05:49:11 10° E visible
27 Feb - 07:27:30 10° WSW 07:46:47 73° NNW 08:04:41 10° NE daylight
27 Feb - 09:45:31 10° W 10:02:09 35° NW 10:15:28 10° NNE daylight
27 Feb - 23:35:25 10° NNW 23:42:22 33° NE 23:53:35 10° E visible
28 Feb - 01:44:55 10° WNW 01:55:05 82° NNE 02:12:49 10° ESE visible
28 Feb - 03:57:25 10° W 04:11:28 80° S 04:31:47 10° E visible
28 Feb - 06:11:37 10° WSW 06:29:30 86° NNW 06:49:11 10° ENE visible
28 Feb - 08:27:41 10° WSW 08:46:19 51° NW 09:02:29 10° NNE daylight
28 Feb - 10:49:54 10° W 11:00:15 17° NW 11:09:07 10° NNW daylight
28 Feb - 22:25:17 10° NNE 22:29:10 15° NE 22:34:08 10° E night (unlit)
01 Mar - 00:31:52 10° NW 00:40:06 61° NNE 00:54:51 10° ESE visible
01 Mar - 02:43:09 10° W 02:54:43 83° S 03:13:49 10° E visible
01 Mar - 04:56:24 10° WSW 05:12:04 85° SSE 05:32:32 10° ENE visible
01 Mar - 07:11:09 10° WSW 07:29:41 68° NNW 07:48:09 10° NE daylight
01 Mar - 09:29:10 10° W 09:45:06 31° NW 09:58:39 10° N daylight
01 Mar - 23:19:41 10° NNW 23:26:09 36° NE 23:36:54 10° ESE visible
02 Mar - 01:29:27 10° WNW 01:38:52 87° NNE 01:55:44 10° ESE visible
02 Mar - 03:41:47 10° W 03:54:56 80° S 04:14:57 10° E visible
02 Mar - 05:55:31 10° WSW 06:12:32 82° NNW 06:32:33 10° ENE visible
02 Mar - 08:11:17 10° WSW 08:29:11 47° NW 08:45:47 10° NNE daylight
02 Mar - 10:34:43 10° WNW 10:43:23 15° NW 10:51:12 10° NNW daylight
02 Mar - 22:09:02 10° NNE 22:13:01 17° NE 22:18:17 10° E night (unlit)
03 Mar - 00:16:23 10° NW 00:23:58 66° NNE 00:37:52 10° ESE visible
03 Mar - 02:27:40 10° W 02:38:27 80° S 02:56:50 10° E visible
03 Mar - 04:40:35 10° WSW 04:55:21 87° SSE 05:15:47 10° ENE visible
03 Mar - 06:54:54 10° WSW 07:12:35 63° NNW 07:31:25 10° NE daylight
03 Mar - 09:13:04 10° W 09:28:01 28° NW 09:41:32 10° N daylight
03 Mar - 23:04:03 10° NNW 23:10:04 40° NE 23:20:15 10° ESE night (unlit)
